Tracking 28052 objects as of 22-Sep-2023
HD Live streaming from Space Station
objects crossing your sky now

FENGYUN 2G DEB

Track FENGYUN 2G DEB now!


NORAD ID: 43646
Int'l Code: 2014-090D
Perigee: 35,142.0 km
Apogee: 36,457.4 km
Inclination: 5.0 °
Period: 1,436.4 minutes
Semi major axis: 42170 km
RCS: Unknown
Launch date: December 31, 2014
Source: People's Republic of China (PRC)
Launch site: Xichang Space Center, China (XSC)

Note: This is SATELLITE DEBRIS
Your satellite tracking list
Your tracking list is empty




NASA's NSSDC Master Catalog

Two Line Element Set (TLE):
1 43646U 14090D   23264.94417690 -.00000317  00000-0  00000-0 0  9996
2 43646   5.0162  80.2630 0155961 247.3198 111.2538  1.00250683 31683
Source of the keplerian elements: AFSPC